| time (UTC) | temp C | wind direction | speed KPH | gust KPH | rain 1hr cm | rain 24hr cm | rain mn cm | humidity % | barometer mb |
| 20260506193001 | 14 | 167 | 3.2 | 12.9 | 0.13 | 0.13 | 0.13 | 93 | 1008.2 |
| 20260506192503 | 14 | 211 | 3.2 | 9.7 | 0.13 | 0.13 | 0.13 | 93 | 1008.2 |
| 20260506192003 | 14 | 240 | 1.6 | 9.7 | 0.10 | 0.10 | 0.10 | 93 | 1008.5 |
| 20260506191506 | 14 | 177 | 4.8 | 9.7 | 0.10 | 0.10 | 0.10 | 92 | 1008.4 |
| 20260506191003 | 14 | 277 | 3.2 | 9.7 | 0.10 | 0.10 | 0.10 | 92 | 1008.5 |
| 20260506190502 | 14 | 304 | 1.6 | 11.3 | 0.10 | 0.10 | 0.10 | 91 | 1008.5 |
| 20260506190007 | 14 | 290 | 3.2 | 12.9 | 0.08 | 0.08 | 0.08 | 91 | 1008.6 |
| 20260506185502 | 14 | 281 | 4.8 | 12.9 | 0.05 | 0.05 | 0.05 | 90 | 1008.6 |
| 20260506185003 | 15 | 34 | 0.0 | 17.7 | 0.03 | 0.03 | 0.03 | 89 | 1008.4 |
| 20260506184507 | 15 | 219 | 3.2 | 17.7 | 0.03 | 0.03 | 0.03 | 89 | 1008.4 |
| 20260506184004 | 15 | 291 | 1.6 | 9.7 | 0.00 | 0.00 | 0.00 | 88 | 1008.5 |
| 20260506183504 | 15 | 175 | 1.6 | 14.5 | 0.00 | 0.00 | 0.00 | 88 | 1008.7 |
| 20260506183006 | 15 | 77 | 3.2 | 19.3 | 0.00 | 0.00 | 0.00 | 87 | 1008.6 |
| 20260506182506 | 15 | 324 | 4.8 | 19.3 | 0.00 | 0.00 | 0.00 | 86 | 1008.9 |
| 20260506182003 | 15 | 300 | 3.2 | 16.1 | 0.00 | 0.00 | 0.00 | 85 | 1009.0 |
| 20260506181503 | 15 | 165 | 3.2 | 19.3 | 0.00 | 0.00 | 0.00 | 85 | 1009.1 |
| 20260506181004 | 15 | 360 | 4.8 | 19.3 | 0.00 | 0.00 | 0.00 | 83 | 1009.4 |
| 20260506180503 | 16 | 360 | 6.4 | 16.1 | 0.00 | 0.00 | 0.00 | 81 | 1009.5 |
| 20260506180007 | 16 | 315 | 3.2 | 14.5 | 0.00 | 0.00 | 0.00 | 81 | 1009.4 |
| 20260506175503 | 16 | 267 | 3.2 | 12.9 | 0.00 | 0.00 | 0.00 | 80 | 1009.4 |
| 20260506175002 | 16 | 101 | 1.6 | 16.1 | 0.00 | 0.00 | 0.00 | 80 | 1009.5 |
| 20260506174504 | 16 | 233 | 4.8 | 16.1 | 0.00 | 0.00 | 0.00 | 79 | 1009.6 |
| 20260506174003 | 16 | 257 | 4.8 | 12.9 | 0.00 | 0.00 | 0.00 | 78 | 1009.7 |
| 20260506173504 | 16 | 310 | 3.2 | 12.9 | 0.00 | 0.00 | 0.00 | 78 | 1009.8 |
| 20260506173009 | 17 | 254 | 3.2 | 17.7 | 0.00 | 0.00 | 0.00 | 77 | 1009.8 |
| 20260506172504 | 17 | 242 | 4.8 | 17.7 | 0.00 | 0.00 | 0.00 | 77 | 1009.8 |
| 20260506172004 | 17 | 279 | 8.0 | 17.7 | 0.00 | 0.00 | 0.00 | 76 | 1009.7 |
| 20260506171521 | 17 | 258 | 4.8 | 16.1 | 0.00 | 0.00 | 0.00 | 76 | 1009.8 |
| 20260506171003 | 17 | 360 | 8.0 | 16.1 | 0.00 | 0.00 | 0.00 | 75 | 1009.8 |
| 20260506170503 | 18 | 240 | 9.7 | 20.9 | 0.00 | 0.00 | 0.00 | 74 | 1009.9 |
| 20260506170003 | 18 | 185 | 4.8 | 20.9 | 0.00 | 0.00 | 0.00 | 73 | 1009.8 |
| 20260506165503 | 18 | 260 | 4.8 | 9.7 | 0.00 | 0.00 | 0.00 | 74 | 1009.8 |
| 20260506165003 | 18 | 229 | 4.8 | 12.9 | 0.00 | 0.00 | 0.00 | 73 | 1009.9 |
| 20260506164504 | 18 | 22 | 4.8 | 16.1 | 0.00 | 0.00 | 0.00 | 73 | 1009.8 |
| 20260506164003 | 18 | 228 | 6.4 | 24.1 | 0.00 | 0.00 | 0.00 | 72 | 1009.7 |
| 20260506163505 | 18 | 213 | 8.0 | 24.1 | 0.00 | 0.00 | 0.00 | 73 | 1009.8 |
| 20260506163004 | 18 | 202 | 3.2 | 12.9 | 0.00 | 0.00 | 0.00 | 74 | 1009.8 |
| 20260506162503 | 18 | 230 | 3.2 | 19.3 | 0.00 | 0.00 | 0.00 | 74 | 1009.9 |
| 20260506162008 | 18 | 260 | 8.0 | 19.3 | 0.00 | 0.00 | 0.00 | 73 | 1009.9 |
| 20260506161504 | 18 | 250 | 6.4 | 29.0 | 0.00 | 0.00 | 0.00 | 74 | 1010.1 |
| 20260506161003 | 18 | 251 | 4.8 | 29.0 | 0.00 | 0.00 | 0.00 | 73 | 1010.2 |
| 20260506160503 | 18 | 241 | 8.0 | 20.9 | 0.00 | 0.00 | 0.00 | 72 | 1010.3 |
| 20260506160023 | 18 | 198 | 8.0 | 19.3 | 0.00 | 0.00 | 0.00 | 72 | 1010.3 |
| 20260506155504 | 18 | 170 | 8.0 | 19.3 | 0.00 | 0.00 | 0.00 | 71 | 1010.3 |
| 20260506155003 | 19 | 234 | 6.4 | 14.5 | 0.00 | 0.00 | 0.00 | 69 | 1010.4 |
| 20260506154503 | 19 | 309 | 3.2 | 17.7 | 0.00 | 0.00 | 0.00 | 69 | 1010.3 |
| 20260506154003 | 19 | 222 | 1.6 | 17.7 | 0.00 | 0.00 | 0.00 | 70 | 1010.3 |
| 20260506153502 | 20 | 325 | 4.8 | 19.3 | 0.00 | 0.00 | 0.00 | 69 | 1010.4 |
| 20260506153006 | 20 | 273 | 4.8 | 19.3 | 0.00 | 0.00 | 0.00 | 70 | 1010.3 |
| 20260506152503 | 20 | 245 | 4.8 | 17.7 | 0.00 | 0.00 | 0.00 | 70 | 1010.4 |
| 20260506152004 | 20 | 263 | 9.7 | 17.7 | 0.00 | 0.00 | 0.00 | 68 | 1010.4 |
| 20260506151508 | 20 | 303 | 6.4 | 25.7 | 0.00 | 0.00 | 0.00 | 70 | 1010.5 |
| 20260506151004 | 20 | 247 | 4.8 | 25.7 | 0.00 | 0.00 | 0.00 | 69 | 1010.4 |
| 20260506150511 | 19 | 255 | 6.4 | 24.1 | 0.00 | 0.00 | 0.00 | 70 | 1010.6 |
| 20260506150007 | 19 | 282 | 8.0 | 24.1 | 0.00 | 0.00 | 0.00 | 71 | 1010.5 |
| 20260506145504 | 19 | 292 | 11.3 | 17.7 | 0.00 | 0.00 | 0.00 | 72 | 1010.6 |
| 20260506145012 | 18 | 269 | 6.4 | 17.7 | 0.00 | 0.00 | 0.00 | 72 | 1010.6 |
| 20260506144505 | 18 | 291 | 4.8 | 22.5 | 0.00 | 0.00 | 0.00 | 72 | 1010.7 |
| 20260506144002 | 18 | 244 | 9.7 | 22.5 | 0.00 | 0.00 | 0.00 | 72 | 1010.7 |
| 20260506143502 | 18 | 292 | 4.8 | 32.2 | 0.00 | 0.00 | 0.00 | 72 | 1010.7 |
| 20260506143012 | 18 | 297 | 9.7 | 24.1 | 0.00 | 0.00 | 0.00 | 71 | 1010.6 |
| 20260506142503 | 18 | 301 | 6.4 | 19.3 | 0.00 | 0.00 | 0.00 | 72 | 1010.8 |
| 20260506142003 | 18 | 198 | 8.0 | 16.1 | 0.00 | 0.00 | 0.00 | 72 | 1010.9 |
| 20260506141509 | 18 | 228 | 6.4 | 17.7 | 0.00 | 0.00 | 0.00 | 73 | 1010.8 |
| 20260506141004 | 18 | 220 | 4.8 | 17.7 | 0.00 | 0.00 | 0.00 | 71 | 1010.8 |
| 20260506140503 | 19 | 250 | 8.0 | 16.1 | 0.00 | 0.00 | 0.00 | 71 | 1010.7 |
| 20260506140013 | 18 | 265 | 4.8 | 16.1 | 0.00 | 0.00 | 0.00 | 74 | 1010.7 |
| 20260506135507 | 18 | 215 | 3.2 | 17.7 | 0.00 | 0.00 | 0.00 | 75 | 1010.6 |
| 20260506135004 | 18 | 241 | 8.0 | 19.3 | 0.00 | 0.00 | 0.00 | 74 | 1010.6 |
| 20260506134514 | 18 | 255 | 9.7 | 19.3 | 0.00 | 0.00 | 0.00 | 74 | 1010.6 |
| 20260506134010 | 18 | 249 | 4.8 | 19.3 | 0.00 | 0.00 | 0.00 | 75 | 1010.6 |
| 20260506133502 | 17 | 196 | 8.0 | 16.1 | 0.00 | 0.00 | 0.00 | 75 | 1010.7 |
| 20260506133007 | 17 | 243 | 6.4 | 20.9 | 0.00 | 0.00 | 0.00 | 77 | 1010.6 |
| 20260506132504 | 17 | 273 | 6.4 | 20.9 | 0.00 | 0.00 | 0.00 | 76 | 1010.7 |
| 20260506132008 | 17 | 258 | 8.0 | 20.9 | 0.00 | 0.00 | 0.00 | 76 | 1010.8 |
| 20260506131513 | 17 | 273 | 6.4 | 20.9 | 0.00 | 0.00 | 0.00 | 76 | 1010.8 |
| 20260506131002 | 17 | 281 | 3.2 | 19.3 | 0.00 | 0.00 | 0.00 | 78 | 1010.8 |
| 20260506130503 | 17 | 200 | 8.0 | 24.1 | 0.00 | 0.00 | 0.00 | 77 | 1011.0 |
| 20260506130005 | 17 | 278 | 8.0 | 24.1 | 0.00 | 0.00 | 0.00 | 78 | 1011.1 |
| 20260506125505 | 17 | 217 | 9.7 | 20.9 | 0.00 | 0.00 | 0.00 | 77 | 1011.2 |
| 20260506125005 | 17 | 257 | 9.7 | 22.5 | 0.00 | 0.00 | 0.00 | 77 | 1011.1 |
| 20260506124514 | 17 | 207 | 4.8 | 22.5 | 0.00 | 0.00 | 0.00 | 79 | 1011.0 |
| 20260506124002 | 16 | 261 | 8.0 | 20.9 | 0.00 | 0.00 | 0.00 | 79 | 1011.0 |
| 20260506123506 | 16 | 269 | 6.4 | 20.9 | 0.00 | 0.00 | 0.00 | 80 | 1011.0 |
| 20260506123020 | 16 | 298 | 4.8 | 17.7 | 0.00 | 0.00 | 0.00 | 82 | 1011.0 |
| 20260506122509 | 16 | 241 | 6.4 | 17.7 | 0.00 | 0.00 | 0.00 | 82 | 1011.0 |
| 20260506122012 | 16 | 294 | 8.0 | 19.3 | 0.00 | 0.00 | 0.00 | 82 | 1011.0 |
| 20260506121507 | 16 | 261 | 4.8 | 19.3 | 0.00 | 0.00 | 0.00 | 82 | 1011.0 |
| 20260506121003 | 16 | 257 | 3.2 | 16.1 | 0.00 | 0.00 | 0.00 | 82 | 1010.9 |
| 20260506120507 | 16 | 173 | 4.8 | 16.1 | 0.00 | 0.00 | 0.00 | 83 | 1011.0 |
| 20260506120008 | 16 | 250 | 6.4 | 14.5 | 0.00 | 0.00 | 0.00 | 83 | 1010.9 |
| 20260506115503 | 15 | 226 | 4.8 | 14.5 | 0.00 | 0.00 | 0.00 | 84 | 1011.1 |
| 20260506115006 | 15 | 240 | 8.0 | 25.7 | 0.00 | 0.00 | 0.00 | 85 | 1010.9 |
| 20260506114509 | 15 | 227 | 4.8 | 25.7 | 0.00 | 0.00 | 0.00 | 85 | 1011.0 |
| 20260506114005 | 15 | 267 | 3.2 | 12.9 | 0.00 | 0.00 | 0.00 | 86 | 1011.3 |
| 20260506113505 | 15 | 256 | 3.2 | 14.5 | 0.00 | 0.00 | 0.00 | 86 | 1011.2 |
| 20260506113008 | 15 | 265 | 4.8 | 14.5 | 0.00 | 0.00 | 0.00 | 87 | 1011.3 |
| 20260506112507 | 15 | 215 | 6.4 | 11.3 | 0.00 | 0.00 | 0.00 | 87 | 1011.3 |
| 20260506112009 | 14 | 360 | 1.6 | 9.7 | 0.00 | 0.00 | 0.00 | 88 | 1011.3 |
| 20260506111524 | 14 | 360 | 3.2 | 17.7 | 0.00 | 0.00 | 0.00 | 88 | 1011.1 |
| 20260506111004 | 14 | 242 | 8.0 | 19.3 | 0.00 | 0.00 | 0.00 | 89 | 1011.2 |
| 20260506110511 | 13 | 269 | 8.0 | 19.3 | 0.00 | 0.00 | 0.00 | 90 | 1011.4 |
| 20260506110506 | 13 | 213 | 8.0 | 19.3 | 0.00 | 0.00 | 0.00 | 90 | 1011.4 |
| 20260506110007 | 13 | 265 | 3.2 | 12.9 | 0.00 | 0.00 | 0.00 | 90 | 1011.3 |
| 20260506105504 | 13 | 269 | 1.6 | 9.7 | 0.00 | 0.00 | 0.00 | 90 | 1011.2 |
| 20260506105005 | 13 | 271 | 4.8 | 8.0 | 0.00 | 0.00 | 0.00 | 90 | 1011.3 |
| 20260506104502 | 13 | 209 | 1.6 | 6.4 | 0.00 | 0.00 | 0.00 | 90 | 1011.3 |
| 20260506104002 | 13 | 185 | 1.6 | 8.0 | 0.00 | 0.00 | 0.00 | 90 | 1011.2 |
| 20260506103502 | 13 | 284 | 3.2 | 9.7 | 0.00 | 0.00 | 0.00 | 90 | 1011.3 |
| 20260506103006 | 13 | 221 | 3.2 | 9.7 | 0.00 | 0.00 | 0.00 | 90 | 1011.1 |
| 20260506102502 | 13 | 38 | 1.6 | 8.0 | 0.00 | 0.00 | 0.00 | 90 | 1011.1 |
| 20260506102002 | 13 | 296 | 3.2 | 8.0 | 0.00 | 0.00 | 0.00 | 89 | 1010.9 |
| 20260506101503 | 13 | 72 | 1.6 | 6.4 | 0.00 | 0.00 | 0.00 | 89 | 1010.9 |
| 20260506101006 | 13 | 225 | 1.6 | 8.0 | 0.00 | 0.00 | 0.00 | 89 | 1010.9 |
| 20260506100503 | 13 | 237 | 3.2 | 9.7 | 0.00 | 0.00 | 0.00 | 89 | 1010.8 |
| 20260506100007 | 13 | 277 | 3.2 | 9.7 | 0.00 | 0.00 | 0.00 | 89 | 1010.8 |
| 20260506095503 | 13 | 275 | 0.0 | 4.8 | 0.00 | 0.00 | 0.00 | 88 | 1010.8 |
| 20260506095002 | 13 | 247 | 1.6 | 12.9 | 0.00 | 0.00 | 0.00 | 88 | 1010.9 |
| 20260506094514 | 13 | 250 | 3.2 | 12.9 | 0.00 | 0.00 | 0.00 | 88 | 1010.9 |
| 20260506094004 | 13 | 231 | 3.2 | 14.5 | 0.00 | 0.00 | 0.00 | 88 | 1010.9 |
| 20260506093502 | 13 | 252 | 4.8 | 14.5 | 0.00 | 0.00 | 0.00 | 88 | 1010.9 |
| 20260506093004 | 13 | 284 | 3.2 | 11.3 | 0.00 | 0.00 | 0.00 | 88 | 1010.9 |
| 20260506092503 | 13 | 263 | 3.2 | 14.5 | 0.00 | 0.00 | 0.00 | 87 | 1010.9 |
| 20260506092004 | 13 | 194 | 4.8 | 16.1 | 0.00 | 0.00 | 0.00 | 88 | 1010.8 |
| 20260506091505 | 13 | 280 | 3.2 | 16.1 | 0.00 | 0.00 | 0.00 | 87 | 1010.9 |
| 20260506091007 | 13 | 136 | 1.6 | 6.4 | 0.00 | 0.00 | 0.00 | 87 | 1010.9 |
| 20260506090504 | 13 | 295 | 1.6 | 6.4 | 0.00 | 0.00 | 0.00 | 87 | 1011.0 |
| 20260506090007 | 13 | 218 | 1.6 | 12.9 | 0.00 | 0.00 | 0.00 | 87 | 1011.1 |
| 20260506085503 | 13 | 161 | 3.2 | 16.1 | 0.00 | 0.00 | 0.00 | 87 | 1011.0 |
| 20260506085004 | 13 | 252 | 3.2 | 16.1 | 0.00 | 0.00 | 0.00 | 86 | 1011.1 |
| 20260506084516 | 13 | 283 | 1.6 | 6.4 | 0.00 | 0.00 | 0.00 | 86 | 1011.1 |
| 20260506084003 | 13 | 226 | 1.6 | 6.4 | 0.00 | 0.00 | 0.00 | 86 | 1011.0 |
| 20260506083504 | 13 | 243 | 1.6 | 6.4 | 0.00 | 0.00 | 0.00 | 86 | 1011.0 |
| 20260506083013 | 14 | 245 | 1.6 | 11.3 | 0.00 | 0.00 | 0.00 | 85 | 1011.1 |
| 20260506082503 | 14 | 34 | 3.2 | 12.9 | 0.00 | 0.00 | 0.00 | 85 | 1011.2 |
| 20260506082003 | 14 | 231 | 1.6 | 12.9 | 0.00 | 0.00 | 0.00 | 85 | 1011.2 |
| 20260506081507 | 14 | 264 | 1.6 | 11.3 | 0.00 | 0.00 | 0.00 | 85 | 1011.2 |
| 20260506081003 | 14 | 252 | 3.2 | 12.9 | 0.00 | 0.00 | 0.00 | 85 | 1011.2 |
| 20260506080503 | 14 | 268 | 1.6 | 14.5 | 0.00 | 0.00 | 0.00 | 85 | 1011.3 |
| 20260506073503 | 14 | 249 | 1.6 | 12.9 | 0.00 | 0.00 | 0.00 | 84 | 1011.2 |
| 20260506073004 | 14 | 284 | 3.2 | 12.9 | 0.00 | 0.00 | 0.00 | 84 | 1011.2 |
| 20260506072508 | 14 | 23 | 3.2 | 12.9 | 0.00 | 0.00 | 0.00 | 84 | 1011.1 |
| 20260506072008 | 14 | 269 | 4.8 | 16.1 | 0.00 | 0.00 | 0.00 | 84 | 1011.2 |
| 20260506071517 | 14 | 189 | 6.4 | 16.1 | 0.00 | 0.00 | 0.00 | 83 | 1011.2 |
| 20260506071004 | 14 | 190 | 8.0 | 22.5 | 0.00 | 0.00 | 0.00 | 83 | 1011.1 |
| 20260506070503 | 14 | 292 | 6.4 | 22.5 | 0.00 | 0.00 | 0.00 | 83 | 1011.1 |
| 20260506062509 | 15 | 263 | 4.8 | 19.3 | 0.00 | 0.00 | 0.00 | 82 | 1011.0 |
| 20260506062002 | 15 | 254 | 6.4 | 19.3 | 0.00 | 0.00 | 0.00 | 82 | 1011.2 |
| 20260506061507 | 15 | 253 | 6.4 | 12.9 | 0.00 | 0.00 | 0.00 | 81 | 1011.1 |
| 20260506061008 | 15 | 245 | 4.8 | 16.1 | 0.00 | 0.00 | 0.00 | 81 | 1011.1 |
| 20260506060507 | 15 | 198 | 4.8 | 16.1 | 0.00 | 0.00 | 0.00 | 81 | 1011.2 |
| 20260506051009 | 15 | 224 | 9.7 | 16.1 | 0.00 | 0.00 | 0.00 | 79 | 1011.7 |
| 20260506050504 | 15 | 271 | 8.0 | 19.3 | 0.00 | 0.00 | 0.00 | 78 | 1011.7 |
| 20260506045005 | 15 | 207 | 6.4 | 14.5 | 0.00 | 0.00 | 0.00 | 78 | 1011.7 |
| 20260506044511 | 15 | 269 | 8.0 | 16.1 | 0.00 | 0.00 | 0.00 | 77 | 1011.8 |
| 20260506044011 | 15 | 360 | 8.0 | 16.1 | 0.00 | 0.00 | 0.00 | 77 | 1011.7 |
| 20260506043509 | 15 | 252 | 6.4 | 17.7 | 0.00 | 0.00 | 0.00 | 77 | 1011.8 |
| 20260506043006 | 16 | 255 | 8.0 | 17.7 | 0.00 | 0.00 | 0.00 | 77 | 1011.8 |
| 20260506042504 | 15 | 278 | 8.0 | 17.7 | 0.00 | 0.00 | 0.00 | 77 | 1011.8 |
| 20260506042007 | 16 | 360 | 4.8 | 22.5 | 0.00 | 0.00 | 0.00 | 77 | 1011.8 |
| 20260506041517 | 16 | 360 | 4.8 | 22.5 | 0.00 | 0.00 | 0.00 | 76 | 1011.8 |
| 20260506041004 | 16 | 360 | 3.2 | 16.1 | 0.00 | 0.00 | 0.00 | 76 | 1011.8 |
| 20260506040508 | 16 | 360 | 6.4 | 16.1 | 0.00 | 0.00 | 0.00 | 76 | 1011.9 |
| 20260506040016 | 16 | 360 | 6.4 | 16.1 | 0.00 | 0.00 | 0.00 | 75 | 1011.8 |
| 20260506035504 | 16 | 360 | 8.0 | 16.1 | 0.00 | 0.00 | 0.00 | 75 | 1011.8 |
| 20260506035008 | 16 | 360 | 6.4 | 16.1 | 0.00 | 0.00 | 0.00 | 75 | 1011.8 |
| 20260506034519 | 16 | 269 | 3.2 | 32.2 | 0.00 | 0.00 | 0.00 | 74 | 1011.7 |
| 20260506034008 | 16 | 277 | 9.7 | 32.2 | 0.00 | 0.00 | 0.00 | 74 | 1011.7 |
| 20260506033506 | 16 | 257 | 4.8 | 14.5 | 0.00 | 0.00 | 0.00 | 74 | 1011.7 |
| 20260506033016 | 16 | 280 | 4.8 | 19.3 | 0.00 | 0.00 | 0.00 | 73 | 1011.7 |
| 20260506032513 | 16 | 236 | 8.0 | 19.3 | 0.00 | 0.00 | 0.00 | 73 | 1011.7 |
| 20260506032004 | 16 | 269 | 4.8 | 14.5 | 0.00 | 0.00 | 0.00 | 72 | 1011.7 |
| 20260506031512 | 16 | 284 | 3.2 | 17.7 | 0.00 | 0.00 | 0.00 | 72 | 1011.8 |
| 20260506031004 | 16 | 274 | 4.8 | 17.7 | 0.00 | 0.00 | 0.00 | 72 | 1011.8 |
| 20260506030508 | 16 | 288 | 3.2 | 14.5 | 0.00 | 0.00 | 0.00 | 72 | 1011.7 |
| 20260506030012 | 16 | 275 | 4.8 | 14.5 | 0.00 | 0.00 | 0.00 | 71 | 1011.7 |
| 20260506025507 | 16 | 267 | 8.0 | 14.5 | 0.00 | 0.00 | 0.00 | 72 | 1011.7 |
| 20260506025009 | 16 | 275 | 3.2 | 19.3 | 0.00 | 0.00 | 0.00 | 71 | 1011.7 |
| 20260506024509 | 16 | 245 | 8.0 | 19.3 | 0.00 | 0.00 | 0.00 | 71 | 1011.8 |
| 20260506024004 | 16 | 227 | 4.8 | 17.7 | 0.00 | 0.00 | 0.00 | 71 | 1011.8 |
| 20260506023506 | 16 | 289 | 4.8 | 17.7 | 0.00 | 0.00 | 0.00 | 71 | 1011.8 |
| 20260506023024 | 16 | 324 | 6.4 | 17.7 | 0.00 | 0.00 | 0.00 | 71 | 1011.7 |
| 20260506022503 | 16 | 293 | 4.8 | 17.7 | 0.00 | 0.00 | 0.00 | 71 | 1011.9 |
| 20260506022008 | 16 | 271 | 4.8 | 12.9 | 0.00 | 0.00 | 0.00 | 71 | 1011.7 |
| 20260506021524 | 16 | 205 | 1.6 | 17.7 | 0.00 | 0.00 | 0.00 | 71 | 1011.7 |
| 20260506021010 | 16 | 227 | 3.2 | 17.7 | 0.00 | 0.00 | 0.00 | 71 | 1011.7 |
| 20260506020505 | 16 | 198 | 4.8 | 16.1 | 0.00 | 0.00 | 0.00 | 71 | 1011.7 |
| 20260506020011 | 16 | 312 | 3.2 | 16.1 | 0.00 | 0.00 | 0.00 | 70 | 1011.7 |
| 20260506015507 | 16 | 59 | 1.6 | 17.7 | 0.00 | 0.00 | 0.00 | 70 | 1011.6 |
| 20260506015004 | 16 | 271 | 8.0 | 17.7 | 0.00 | 0.00 | 0.00 | 71 | 1011.6 |
| 20260506014509 | 16 | 300 | 4.8 | 12.9 | 0.00 | 0.00 | 0.00 | 71 | 1011.7 |
| 20260506014002 | 16 | 158 | 4.8 | 17.7 | 0.00 | 0.00 | 0.00 | 71 | 1011.6 |
| 20260506013503 | 16 | 259 | 8.0 | 17.7 | 0.00 | 0.00 | 0.00 | 71 | 1011.5 |
| 20260506013007 | 16 | 128 | 1.6 | 11.3 | 0.00 | 0.00 | 0.00 | 71 | 1011.5 |
| 20260506012506 | 16 | 272 | 1.6 | 9.7 | 0.00 | 0.00 | 0.00 | 71 | 1011.5 |
| 20260506012005 | 16 | 266 | 4.8 | 16.1 | 0.00 | 0.00 | 0.00 | 71 | 1011.4 |
| 20260506011504 | 16 | 360 | 3.2 | 17.7 | 0.00 | 0.00 | 0.00 | 71 | 1011.4 |
| 20260506011004 | 16 | 360 | 3.2 | 17.7 | 0.00 | 0.00 | 0.00 | 71 | 1011.2 |
| 20260506010503 | 16 | 360 | 6.4 | 12.9 | 0.00 | 0.00 | 0.00 | 71 | 1011.3 |
| 20260506010009 | 16 | 360 | 3.2 | 14.5 | 0.00 | 0.00 | 0.00 | 71 | 1011.2 |
| 20260506005504 | 16 | 360 | 1.6 | 14.5 | 0.00 | 0.00 | 0.00 | 71 | 1011.2 |
| 20260506005005 | 15 | 207 | 1.6 | 14.5 | 0.00 | 0.00 | 0.00 | 71 | 1011.1 |
| 20260506004506 | 15 | 233 | 4.8 | 11.3 | 0.00 | 0.00 | 0.00 | 71 | 1011.2 |
| 20260506004003 | 15 | 221 | 3.2 | 11.3 | 0.00 | 0.00 | 0.00 | 71 | 1010.8 |
| 20260506003504 | 16 | 360 | 3.2 | 9.7 | 0.00 | 0.00 | 0.00 | 71 | 1010.9 |
| 20260506003003 | 16 | 73 | 1.6 | 9.7 | 0.00 | 0.00 | 0.00 | 70 | 1010.8 |
| 20260506002502 | 16 | 272 | 1.6 | 6.4 | 0.00 | 0.00 | 0.00 | 70 | 1010.6 |
| 20260506002009 | 16 | 251 | 1.6 | 11.3 | 0.00 | 0.00 | 0.00 | 70 | 1010.4 |
| 20260506001504 | 16 | 254 | 3.2 | 11.3 | 0.00 | 0.00 | 0.00 | 69 | 1010.3 |
| 20260506001003 | 16 | 360 | 0.0 | 16.1 | 0.00 | 0.00 | 0.00 | 69 | 1010.2 |
| 20260506000502 | 16 | 360 | 1.6 | 16.1 | 0.00 | 0.00 | 0.00 | 69 | 1010.2 |
| 20260506000016 | 16 | 360 | 6.4 | 12.9 | 0.00 | 0.00 | 0.00 | 69 | 1010.3 |
| 20260505235508 | 16 | 360 | 0.0 | 12.9 | 0.00 | 0.00 | 0.00 | 69 | 1010.3 |
| 20260505235003 | 16 | 360 | 1.6 | 17.7 | 0.00 | 0.00 | 0.00 | 69 | 1010.1 |
| 20260505234516 | 16 | 360 | 1.6 | 17.7 | 0.00 | 0.00 | 0.00 | 69 | 1010.1 |
| 20260505234002 | 16 | 360 | 4.8 | 25.7 | 0.00 | 0.00 | 0.00 | 68 | 1009.9 |
| 20260505233506 | 16 | 360 | 6.4 | 25.7 | 0.00 | 0.00 | 0.00 | 68 | 1009.7 |
| 20260505233011 | 16 | 360 | 6.4 | 25.7 | 0.00 | 0.00 | 0.00 | 68 | 1009.5 |
| 20260505232506 | 17 | 360 | 1.6 | 14.5 | 0.00 | 0.00 | 0.00 | 67 | 1009.7 |
| 20260505232003 | 17 | 53 | 1.6 | 9.7 | 0.00 | 0.00 | 0.00 | 67 | 1009.5 |
| 20260505231505 | 17 | 215 | 3.2 | 17.7 | 0.00 | 0.00 | 0.00 | 66 | 1009.5 |
| 20260505231002 | 17 | 213 | 8.0 | 17.7 | 0.00 | 0.00 | 0.00 | 66 | 1009.3 |
| 20260505230502 | 17 | 20 | 3.2 | 14.5 | 0.00 | 0.00 | 0.00 | 65 | 1009.2 |
| 20260505230005 | 18 | 246 | 3.2 | 20.9 | 0.00 | 0.00 | 0.00 | 64 | 1009.2 |
| 20260505225503 | 18 | 270 | 6.4 | 20.9 | 0.00 | 0.00 | 0.00 | 63 | 1009.4 |
| 20260505225004 | 18 | 109 | 4.8 | 14.5 | 0.00 | 0.00 | 0.00 | 62 | 1009.5 |
| 20260505224506 | 19 | 254 | 4.8 | 14.5 | 0.00 | 0.00 | 0.00 | 61 | 1009.6 |
| 20260505224007 | 19 | 227 | 3.2 | 17.7 | 0.00 | 0.00 | 0.00 | 61 | 1009.5 |
| 20260505223512 | 19 | 227 | 6.4 | 19.3 | 0.00 | 0.00 | 0.00 | 61 | 1009.6 |
| 20260505223013 | 20 | 110 | 3.2 | 19.3 | 0.00 | 0.00 | 0.00 | 60 | 1009.6 |
| 20260505222503 | 20 | 75 | 3.2 | 17.7 | 0.00 | 0.00 | 0.00 | 60 | 1009.4 |
| 20260505222005 | 20 | 239 | 6.4 | 17.7 | 0.00 | 0.00 | 0.00 | 60 | 1009.4 |
| 20260505221517 | 20 | 209 | 6.4 | 19.3 | 0.00 | 0.00 | 0.00 | 59 | 1009.3 |
| 20260505221002 | 20 | 141 | 1.6 | 19.3 | 0.00 | 0.00 | 0.00 | 59 | 1009.3 |
| 20260505220503 | 20 | 241 | 4.8 | 11.3 | 0.00 | 0.00 | 0.00 | 58 | 1009.2 |
| 20260505220013 | 20 | 115 | 3.2 | 12.9 | 0.00 | 0.00 | 0.00 | 58 | 1009.2 |
| 20260505215505 | 20 | 234 | 1.6 | 12.9 | 0.00 | 0.00 | 0.00 | 57 | 1009.1 |
| 20260505215004 | 21 | 184 | 4.8 | 16.1 | 0.00 | 0.00 | 0.00 | 57 | 1009.1 |
| 20260505214512 | 21 | 216 | 3.2 | 20.9 | 0.00 | 0.00 | 0.00 | 56 | 1009.0 |
| 20260505214004 | 21 | 352 | 4.8 | 20.9 | 0.00 | 0.00 | 0.00 | 56 | 1009.1 |
| 20260505213504 | 21 | 292 | 6.4 | 19.3 | 0.00 | 0.00 | 0.00 | 53 | 1009.1 |
| 20260505213009 | 22 | 231 | 4.8 | 17.7 | 0.00 | 0.00 | 0.00 | 52 | 1009.1 |
| 20260505212506 | 22 | 306 | 4.8 | 11.3 | 0.00 | 0.00 | 0.00 | 53 | 1009.0 |
| 20260505212007 | 22 | 234 | 6.4 | 20.9 | 0.00 | 0.00 | 0.00 | 53 | 1009.0 |
| 20260505211504 | 22 | 263 | 3.2 | 20.9 | 0.00 | 0.00 | 0.00 | 1009.0 | |
| 20260505211009 | 22 | 135 | 3.2 | 14.5 | 0.00 | 0.00 | 0.00 | 1008.9 | |
| 20260505210506 | 22 | 296 | 3.2 | 14.5 | 0.00 | 0.00 | 0.00 | 55 | 1008.8 |
| 20260505210007 | 22 | 18 | 1.6 | 14.5 | 0.00 | 0.00 | 0.00 | 55 | 1008.7 |
| 20260505205507 | 21 | 206 | 4.8 | 14.5 | 0.00 | 0.00 | 0.00 | 55 | 1008.7 |
| 20260505205006 | 21 | 159 | 4.8 | 14.5 | 0.00 | 0.00 | 0.00 | 55 | 1008.8 |
| 20260505204515 | 22 | 191 | 4.8 | 14.5 | 0.00 | 0.00 | 0.00 | 54 | 1008.8 |
| 20260505204004 | 22 | 132 | 4.8 | 14.5 | 0.00 | 0.00 | 0.00 | 55 | 1008.9 |
| 20260505203510 | 22 | 211 | 4.8 | 14.5 | 0.00 | 0.00 | 0.00 | 54 | 1009.0 |
| 20260505203009 | 22 | 297 | 3.2 | 12.9 | 0.00 | 0.00 | 0.00 | 54 | 1009.0 |
| 20260505202504 | 22 | 52 | 4.8 | 17.7 | 0.00 | 0.00 | 0.00 | 54 | 1009.0 |
| 20260505202004 | 22 | 175 | 4.8 | 17.7 | 0.00 | 0.00 | 0.00 | 54 | 1008.9 |
| 20260505201518 | 22 | 103 | 4.8 | 19.3 | 0.00 | 0.00 | 0.00 | 54 | 1008.9 |
| 20260505201007 | 22 | 196 | 3.2 | 19.3 | 0.00 | 0.00 | 0.00 | 55 | 1009.0 |
| 20260505200508 | 22 | 74 | 6.4 | 16.1 | 0.00 | 0.00 | 0.00 | 1009.0 | |
| 20260505200010 | 22 | 101 | 3.2 | 17.7 | 0.00 | 0.00 | 0.00 | 55 | 1008.9 |
| 20260505195506 | 22 | 295 | 3.2 | 17.7 | 0.00 | 0.00 | 0.00 | 55 | 1008.9 |
| 20260505195010 | 22 | 238 | 6.4 | 17.7 | 0.00 | 0.00 | 0.00 | 55 | 1009.0 |
| 20260505194509 | 22 | 311 | 6.4 | 17.7 | 0.00 | 0.00 | 0.00 | 54 | 1008.9 |
| 20260505194001 | 22 | 215 | 4.8 | 17.7 | 0.00 | 0.00 | 0.00 | 54 | 1009.0 |
| 20260505193503 | 22 | 242 | 4.8 | 24.1 | 0.00 | 0.00 | 0.00 | 54 | 1009.0 |